IW2HNF-3 Weather Reports


time (UTC)temp
C
wind
direction
speed
KPH
gust
KPH
rain 1hr
cm
rain 24hr
cm
rain mn
cm
humidity
%
barometer
mb
20260505041102 13 0.0 0.0 0.00 0.00 0.00 69 1010.8
20260505040750 14 270 0.0 4.8 0.00 0.00 0.00 67 1010.8
20260505035102 14 229 1.6 6.4 0.00 0.00 0.00 64 1010.9
20260505034039 14 180 0.0 4.8 0.00 0.00 0.00 64 1010.9
20260505033102 14 0.0 0.0 0.00 0.00 0.00 64 1011.0
20260505032038 14 0.0 0.0 0.00 0.00 0.00 65 1011.1
20260505031102 14 0.0 0.0 0.00 0.00 0.00 64 1011.2
20260505030038 14 0.0 0.0 0.00 0.00 0.00 64 1011.3
20260505025102 14 0.0 0.0 0.00 0.00 0.00 64 1011.4
20260505024038 14 0.0 3.2 0.00 0.00 0.00 63 1011.5
20260505023102 14 0.0 0.0 0.00 0.00 0.00 62 1011.7
20260505022038 15 270 0.0 3.2 0.00 0.00 0.00 62 1011.7
20260505021102 15 270 1.6 4.8 0.00 0.00 0.00 62 1011.9
20260505020750 15 0.0 0.0 0.00 0.00 0.00 60 1012.0
20260505015102 15 0.0 0.0 0.00 0.00 0.00 60 1012.1
20260505014038 15 0.0 3.2 0.00 0.00 0.00 60 1012.3
20260505013102 15 231 1.6 4.8 0.00 0.00 0.00 59 1012.5
20260505012038 15 271 6.4 12.9 0.00 0.00 0.00 59 1012.7
20260505011102 15 238 3.2 11.3 0.00 0.00 0.00 61 1012.7
20260505010039 15 285 4.8 12.9 0.00 0.00 0.00 61 1012.8
20260505005102 15 273 4.8 11.3 0.00 0.00 0.00 61 1013.0
20260505004038 15 0.0 1.6 0.00 0.00 0.00 61 1013.2
20260505003102 15 0.0 0.0 0.00 0.00 0.00 61 1013.3
20260505002039 15 330 0.0 4.8 0.00 0.00 0.00 61 1013.4
20260505001102 15 0.0 0.0 0.00 0.00 0.00 60 1013.6
20260505000750 15 0.0 0.0 0.00 0.00 0.00 59 1013.8
20260504235102 15 293 0.0 9.7 0.00 0.00 0.00 59 1013.9
20260504234039 15 0.0 0.0 0.00 0.00 0.00 59 1014.0
20260504233102 15 0.0 0.0 0.00 0.00 0.00 59 1014.1
20260504232038 15 0.0 0.0 0.00 0.00 0.00 59 1014.2
20260504231103 15 0.0 0.0 0.00 0.00 0.00 60 1014.2
20260504230039 15 0.0 0.0 0.00 0.00 0.00 60 1014.4
20260504225102 16 0.0 0.0 0.00 0.00 0.00 59 1014.4
20260504224038 16 0.0 0.0 0.00 0.00 0.00 59 1014.5
20260504223102 16 0.0 0.0 0.00 0.00 0.00 59 1014.6
20260504222038 16 0.0 0.0 0.00 0.00 0.00 58 1014.7
20260504221103 16 0.0 0.0 0.00 0.00 0.00 58 1014.8
20260504220751 16 0.0 0.0 0.00 0.00 0.00 58 1014.9
20260504215103 16 0.0 0.0 0.00 0.00 0.00 58 1014.9
20260504214038 16 270 0.0 4.8 0.00 0.00 0.00 56 1014.9
20260504213104 16 270 0.0 4.8 0.00 0.00 0.00 56 1015.1
20260504212038 16 289 0.0 4.8 0.00 0.00 0.00 55 1015.2
20260504211103 17 263 3.2 8.0 0.00 0.00 0.00 55 1015.2
20260504210038 17 225 1.6 8.0 0.00 0.00 0.00 54 1015.2
20260504205102 17 244 1.6 9.7 0.00 0.00 0.00 54 1015.2
20260504204038 17 261 3.2 9.7 0.00 0.00 0.00 53 1015.3
20260504203105 17 253 1.6 8.0 0.00 0.00 0.00 52 1015.3
20260504202038 17 270 1.6 8.0 0.00 0.00 0.00 51 1015.2
20260504201103 17 225 1.6 8.0 0.00 0.00 0.00 50 1015.1
20260504200752 17 0.0 0.0 0.00 0.00 0.00 47 1015.1
20260504195102 18 0.0 3.2 0.00 0.00 0.00 45 1015.0
20260504194038 18 0.0 3.2 0.00 0.00 0.00 44 1014.9
20260504193102 18 225 0.0 6.4 0.00 0.00 0.00 43 1014.9
20260504192039 18 226 3.2 11.3 0.00 0.00 0.00 42 1014.9
20260504191102 18 0.0 3.2 0.00 0.00 0.00 40 1014.8
20260504190039 18 0.0 0.0 0.00 0.00 0.00 39 1014.7
20260504185102 18 0.0 1.6 0.00 0.00 0.00 38 1014.6
20260504184038 19 0.0 0.0 0.00 0.00 0.00 38 1014.6
20260504183102 19 0.0 0.0 0.00 0.00 0.00 38 1014.5
20260504182040 19 0.0 0.0 0.00 0.00 0.00 36 1014.5
20260504181105 19 0.0 0.0 0.00 0.00 0.00 36 1014.5
20260504180751 20 0.0 0.0 0.00 0.00 0.00 36 1014.5
20260504175103 20 0.0 0.0 0.00 0.00 0.00 36 1014.5
20260504174039 20 0.0 0.0 0.00 0.00 0.00 36 1014.5
20260504173102 20 225 0.0 4.8 0.00 0.00 0.00 36 1014.6
20260504172038 20 0.0 0.0 0.00 0.00 0.00 36 1014.6
20260504171103 20 230 3.2 8.0 0.00 0.00 0.00 36 1014.6
20260504151102 20 283 6.4 14.5 0.00 0.00 0.00 35 1015.0
20260504141102 21 234 4.8 12.9 0.00 0.00 0.00 32 1015.4
20260504140751 22 263 3.2 12.9 0.00 0.00 0.00 31 1015.4
20260504081103 18 0.0 3.2 0.00 0.00 0.00 34 1017.0
20260504080841 18 288 3.2 12.9 0.00 0.00 0.00 33 1016.9